sat.trackr.live / text

‹ back to catalog

STARLINK-4332

NORAD 53190 · 2022-084B

PAYLOAD ACTIVE UNKNOWN

§ Identity

Operator
Country
US
Launch date
2022-07-22
Launch site
AFWTR
Launch vehicle
Mass (kg)
RCS (m²)

Purposes: comms

External: N2YO · Heavens-Above · Gunter

§ Orbital elements

Epoch: 2026-09-19T09:12:07.016256Z

Period
93.91 min
Inclination
97.2817°
Eccentricity
0.0000958
Mean motion
15.33422974 rev/d
Perigee alt
465.0 km
Apogee alt
466.3 km
Semi-major
6,843.7 km
B*
-2.3948e-5
RAAN
318.1736°
Arg perigee
85.0025°
Mean anomaly
275.1328°
Rev number
22,925

§ Raw data

STARLINK-43321 53190U 22084B   26262.38341454 -.00000848  00000+0 -23948-4 0  99952 53190  97.2817 318.1736 0000958  85.0025 275.1328 15.33422974229253

JSON: /api/v1/satellites/53190 · /tle

For live sub-satellite position, see the globe view (requires WebGL).

§ Visibility from observer

Set your observer location to see the next 7 days of passes ≥ 10°. The values pass through the URL so the page stays shareable.

No JS? Fill the form by hand. The geolocation button needs JavaScript.